Location: Newark
(46.7000°N, 66.1167°W)
Time: 02:19:36
(UTC+00:00)

ISS - Visible Passes

Search period start: 23 March 2019 00:00
Search period end: 02 April 2019 00:00
Orbit: 406 x 411 km, 51.6° (Epoch: 23 March)

Date Brightness Start Highest point End Pass type
(mag) Time Alt. Az. Time Alt. Az. Time Alt. Az.
23 Mar -2.6 00:49:44 10° WSW 00:51:54 38° WSW 00:51:54 38° WSW visible
23 Mar -3.8 23:58:45 10° SW 00:02:00 62° SSE 00:03:29 29° ENE visible
24 Mar -0.8 01:35:34 10° W 01:36:16 15° WNW 01:36:16 15° WNW visible
24 Mar -3.1 23:07:56 10° SSW 23:11:01 37° SE 23:14:06 10° ENE visible
25 Mar -3.1 00:44:19 10° W 00:47:32 49° NNW 00:47:40 49° N visible
25 Mar -3.6 23:53:05 10° WSW 23:56:23 69° NNW 23:58:57 16° ENE visible
26 Mar -1.2 01:30:15 10° WNW 01:31:41 21° NW 01:31:41 21° NW visible
27 Mar -2.5 00:38:58 10° WNW 00:42:04 36° N 00:42:50 31° NNE visible
27 Mar -2.8 23:47:40 10° W 23:50:50 44° NNW 23:53:52 11° ENE visible
28 Mar -1.5 01:24:48 10° WNW 01:26:37 25° NW 01:26:37 25° NW visible
29 Mar -2.4 00:33:33 10° WNW 00:36:36 33° N 00:37:35 27° NE visible
29 Mar -0.2 02:10:18 10° WNW 02:10:19 10° WNW 02:10:19 10° WNW visible
29 Mar -2.4 23:42:15 10° WNW 23:45:19 34° N 23:48:23 10° ENE visible
30 Mar -1.9 01:19:10 10° WNW 01:21:14 30° NW 01:21:14 30° NW visible
31 Mar -2.6 00:27:59 10° WNW 00:31:05 36° N 00:32:07 28° NE visible
31 Mar -0.4 02:04:34 10° WNW 02:04:51 12° WNW 02:04:51 12° WNW visible
31 Mar -2.5 23:36:44 10° WNW 23:39:47 33° N 23:42:49 10° ENE visible
01 Apr -2.5 01:13:24 10° WNW 01:15:44 40° NW 01:15:44 40° NW visible
